{"data":{"norad_id":43482,"intl_designator":"2018-047G","name":"IRIDIUM 162","alt_names":[],"object_type":"PAYLOAD","status":"ACTIVE","operator":null,"country":"US","launch_date":"2018-05-22","launch_site_code":"AFWTR","launch_vehicle":null,"mission":null,"orbit_class":"UNKNOWN","rcs_meters":null,"size_class":null,"mass_kg":null,"dimensions":null,"purposes":["comms"],"wikipedia_slug":null,"has_3d_model":false,"image_url":null,"decayed_at":null,"tle_current":{"epoch":"2026-09-19T17:31:07.268736Z","epoch_age_seconds":82102,"freshness":"FRESH","line1":"1 43482U 18047G   26262.72994524  .00000216  00000+0  58357-4 0  9991","line2":"2 43482  86.4471  48.7950 0002352  93.2418 266.9052 14.43275392438763","mean_motion":14.43275392,"eccentricity":0.0002352,"inclination_deg":86.4471,"raan_deg":48.795,"arg_perigee_deg":93.2418,"mean_anomaly_deg":266.9052,"bstar":5.8357e-5,"rev_number":43876,"period_min":99.7730584185,"perigee_km":746.02104255792,"apogee_km":749.37303488974,"semimajor_km":7125.8340387238,"source":"CELESTRAK","updated_at":"2026-09-20T09:00:36.331455Z"}}}